Location: LDNL
(36.4545°S, 141.6685°E)
Time: 10:50:25
(UTC+10:00)

A-11 Canister half - Pass Details

Date: 16 August 2022
Orbit: 1524 x 1684 km, 47.3° (Epoch: 26 September)

Event Time Altitude Azimuth Distance (km) Brightness Sun altitude
Rises 21:57:16 0° 239° (WSW) 4,694 12.2 -47.6°
Reaches altitude 10° 22:00:20 10° 236° (SW) 3,714 11.5 -48.1°
Enters shadow 22:05:17 36° 225° (SW) 2,280 10.0 -49.1°
Maximum altitude 22:09:42 69° 152° (SSE) 1,647 - -49.9°
Drops below altitude 10° 22:19:15 10° 69° (ENE) 3,785 - -51.6°
Sets 22:22:24 0° 66° (ENE) 4,787 - -52.1°
